Back to catalog

INTELSAT 2-F4

AliveCommunicationsGEO
NORAD 2969·PAYLOAD· XX

Launched Sep 28, 1967 from Cape Canaveral Space Force Station

Loading…

TLE

FreshSource: Space-Track

Epoch: Sep 14, 2026, 08:25 UTC

1 02969U 67094A   26257.35116502 -.00000290  00000-0  00000-0 0  9999
2 02969   4.2965  73.1920 0012654 145.1795 210.3972  1.00332450116208

Track INTELSAT 2-F4 in real time with AllMySat

Download on the App Store